顯示廣告
隱藏 ✕
※ 本文為 MindOcean 轉寄自 ptt.cc 更新時間: 2021-01-17 17:48:08
看板 Gossiping
作者 cary4A240022 (關公面前耍大屌)
標題
 Re: [新聞] 王浩宇罷免案投票!太陽露臉排隊人龍短

時間 Sat Jan 16 16:17:46 2021


截至投票結束(16:00)前兩個小時14:00時國民黨的內部統計

投票率為22.4%

最後的兩個小時能不能補齊那2.6%呢

讓我們繼續看下去

https://i.imgur.com/pxQGLDo.jpg
https://i.imgur.com/nMFRLx2.jpg
[圖]
 
[圖]

——更新——

罷王總部內部最新統計

今天投票人數約85000人

https://i.imgur.com/OMbwMVt.jpg
[圖]

——二更——

目前票數比例民視開最快

https://i.imgur.com/IwJfh6J.jpg
[圖]

——三更——

桃市選委會的票數

https://i.imgur.com/fPJmq1J.jpg
[圖]

——四更——

桃市選委會統計已經過8萬票了差一千多票達標

https://i.imgur.com/pIP4v3a.jpg
[圖]

——五更——

桃市選委會統計目前差798票

https://i.imgur.com/HokOJVf.jpg
[圖]

——終更——

桃市選委會統計超過82000
罷免通過

https://i.imgur.com/W3yf9Js.jpg
[圖]

--
--
※ 發信站: 批踢踢實業坊(ptt.cc), 來自: 110.135.213.95 (日本)
※ 文章代碼(AID): #1W0g4iJS (Gossiping)
※ 文章網址: https://www.ptt.cc/bbs/Gossiping/M.1610785068.A.4DC.html
nt880245: 坐看四趴仔崩潰1F 01/16 16:19
Induction: 是四點截止還是五點截止?2F 01/16 16:19
YumingHuang: 表示中壢人喜歡王浩宇啊 ~ 那就這樣唄 XD3F 01/16 16:20
freeclouds: 不會過啦 上次罷韓投票率超高4F 01/16 16:20
KingChang711 
KingChang711: 我們中國國民黨即日起不要四趴仔的票5F 01/16 16:20
ga652206: 智力測驗6F 01/16 16:20
salinia: 不會成功啦 XD7F 01/16 16:20
KingChang711 
KingChang711: 請四趴仔即日起勿發表支持中國國民黨之言論8F 01/16 16:21
TWkiller: 想太多,連中壢都罷不掉那kmt解散算了9F 01/16 16:21
eterbless: 留著繼續看秀下限也不錯啊10F 01/16 16:21
slimu0001: 可憐,是不是國民黨也想留這個綠營敗票機11F 01/16 16:21
jerry8148: 智力堪憂的縣市12F 01/16 16:21
slimu0001: 韓粉最愛講的罷免烽火連天就這樣?13F 01/16 16:22
nono168: 4點結束吧?14F 01/16 16:22
oncemore: 小道消息,估的系統算剛剛好過15F 01/16 16:22
slimu0001: 我也很希望韓粉能幫民進黨排毒一下,罷掉這敗票機16F 01/16 16:22
CenaC 
CenaC: 國民黨連罷免王浩宇都不用心 這跟民進黨比起來真的差遠了17F 01/16 16:22
sunstrider: 難得的罷免票,這麼少人投18F 01/16 16:22
IAMST1011: 鍵盤響應19F 01/16 16:23
ben108472: 剛好過又沒用,有反對票20F 01/16 16:23
JokePtt: 記者我的菜21F 01/16 16:23
ben108472: 疫情還是影響很大22F 01/16 16:23
oncemore: 過有效票23F 01/16 16:24
Induction: 希望不要只差兩票,還以為是五點,剛剛才準備要出門。24F 01/16 16:24
qx5: 剛看開票還有人投不同意票,是投錯還是佛粉?25F 01/16 16:24
Induction: 我媽也在車上26F 01/16 16:24
pokyhoyo: 浩宇是被網路抹黑 現實支持度吊打酸民 這下要拱成立委了27F 01/16 16:24
lolic: 投票率也太低了吧28F 01/16 16:25
DOOT: 票真少 可憐哪29F 01/16 16:25
kcclasaki: 可憐哪30F 01/16 16:25
ben108472: 國民黨內部的投票率永遠只會高估,所以實際上應該不會31F 01/16 16:25
ntlutw: 把垃圾反指標留下來, 綠畜才會更崩潰, 呵呵...32F 01/16 16:26
ben108472: 過,國民黨的小道消息通常都是異常樂觀33F 01/16 16:26
cutesuper: 中國狗柯韓糞超屌 罷免一個垃圾過了是民意展現 沒過還34F 01/16 16:26
cutesuper: 可以嘴要留著敗票
as6633208: 中壢人本來就沒很多,安靜看吧,當初王浩宇1萬票就當選36F 01/16 16:26
as6633208: 了
cutbear123: 喜韓兒又要崩潰惹 笑死38F 01/16 16:27
Induction: 認真詢問:是真的有佛粉嗎?還是反串39F 01/16 16:27
andy61132000: 4%仔怎麼不出去投呢???全哭倒在廁所了喔40F 01/16 16:28
b1184014: 沒投票=支持王!?41F 01/16 16:28
ben108472: 怎麼會沒有佛粉,覺青一堆啊42F 01/16 16:28
※ 編輯: cary4A240022 (110.135.213.95 日本), 01/16/2021 16:31:01
wulaw5566: 中壢人就是愛佛地魔43F 01/16 16:28
shenmue1001: 這個咖洨都罷不掉 其他就梗不用說了44F 01/16 16:29
ntlutw: 綠畜想到垃圾要留下來敗票就崩了, 笑死45F 01/16 16:29
shenmue1001: 更不用說46F 01/16 16:29
abadjoke: 中壢佛粉數量絕對夠啦47F 01/16 16:30
cenalolz: 繼續敗票嘻嘻48F 01/16 16:30
salinia: kmt帶風向只能影響到中老年對政治關心的人 韓之前是對政49F 01/16 16:30
salinia: 治不關心的年輕人沒事都會拿他當梗酸一下 差太遠了啦 罷
salinia: 得掉也是僥倖
shenmue1001: 白藍更多不用插卡就狂吐票的印鈔機 嘻嘻52F 01/16 16:30
nobeldd: 想看智力有多低53F 01/16 16:30
fifi0828: 今天又有笑話可以看惹嘻嘻54F 01/16 16:30
ben108472: 所以年輕人其實也是雙重標準啊,跟老人沒兩樣55F 01/16 16:30
STi2011: 中壢佛粉勝利56F 01/16 16:31
ntlutw: 專門肛未成年男孩的垃圾, 果然綠畜最愛, 呵呵..57F 01/16 16:31
LewisRong: 我倒希望留著不要成功 他太好敗票了哈哈哈58F 01/16 16:31
ben108472: 罷免王浩宇等於支持習近平太好用了59F 01/16 16:31
a79111010: 中壢人要被笑幾年?60F 01/16 16:31
Doica2445: 他沒被罷很好啊 繼續敗票 看戲摟61F 01/16 16:31
hguei: 中壢人的智力測驗62F 01/16 16:31
slimu0001: 疫情影響很大?罷韓的時候疫情也沒多好吧63F 01/16 16:32
APPLEin5566: 垃圾該倒摟64F 01/16 16:32
ntlutw: 綠畜連腦都沒有, 哪來智商 ? 呵呵....65F 01/16 16:32
LewisRong: 留著他2022 dpp會敗掉一堆票 留著才好66F 01/16 16:32
slimu0001: 當時的高雄市政府還想用疫情來技術性干擾咧67F 01/16 16:32
ben108472: 罷韓時高雄沒有本土病例啊,現在嚴重多了68F 01/16 16:32
basslife: 就算不成功 這傢伙也差不多了吧69F 01/16 16:32
s1025342: 中壢人智商堪憂70F 01/16 16:33
ben108472: 下次還是選的上,因為只需要一萬多票71F 01/16 16:33
wanye8329: 這要是罷不掉。真的就是中壢人的智商堪憂72F 01/16 16:33
ntlutw: 還真怕罷王通過呢, 等於幫民退黨掃垃圾, 呵呵...73F 01/16 16:33
ben108472: 議員通常只需要靠知名度就能選上74F 01/16 16:33
AKIRAYOUNG: 4%不是講國民黨沒在幫罷王嗎XDD還紀錄個屁XD75F 01/16 16:33
awesomeSS66: 中天新聞正常發揮 DPP唯一政績就是下架中天76F 01/16 16:34
raxsc: 讚讚,民主聖地77F 01/16 16:34
DANANPA: 罷韓那天高雄下午還下大雨欸,一樣澆不熄高雄人的怒火78F 01/16 16:34
LewisRong: 議員很好上啦 joeman或館長登記也會上 立委才難79F 01/16 16:34
LittleBeauty: 好爽喔 霸掉這隻垃圾了80F 01/16 16:35
APPLEin5566: 不過門崁有點高 難81F 01/16 16:35
ntlutw: 從李進勇去巡投開票所, 就知道結果了82F 01/16 16:35
amishitter: 柯韓粉在八卦投完票了83F 01/16 16:35
jenchieh5: 最好別過XD84F 01/16 16:35
gankgf: 4%仔等著崩潰吧 優質議員大家有目共睹不會被罷免的85F 01/16 16:36
ntlutw: 高雄綠畜的糞火換來一個卵男, 呵呵...86F 01/16 16:36
yeng1217: DPP也說沒幫忙罷韓啊 半斤八兩87F 01/16 16:36
cutbear123: 喜韓兒又要崩潰惹 笑死88F 01/16 16:36
ntlutw: 卵男才是高雄綠糞的最愛, 呵呵...89F 01/16 16:37
pepeboy: 中壢藍到爆還沒過 自己要不要先檢討一下90F 01/16 16:37
same60710: 看連線畫面罷王總部的人的表情 感覺很明顯了吧91F 01/16 16:37
ntlutw: 綠畜一看到卵就崩了, 花哈哈...92F 01/16 16:37
amishitter: kmt沒幫https://i.imgur.com/q3OsGPY.jpg93F 01/16 16:37
[圖]
yeng1217: 看這廝沒被罷掉後會不會繼續出來秀下限 想想就興奮94F 01/16 16:37
suckpopo: 拉鍊這種人都爸不掉欸物藍營95F 01/16 16:37
abcde1125: 沒積極催票吧96F 01/16 16:37
takeda3234: 不會過吧97F 01/16 16:37
khlin1016: 坐等辣雞4%崩潰98F 01/16 16:38
cutbear123: 喜韓兒要輸幾次99F 01/16 16:38
a129517496: 王浩宇都罷不掉 看看韓國瑜有多惹人厭100F 01/16 16:38
ntlutw: 沒過好啊, 看垃圾下次表演什麼笑話101F 01/16 16:38
LewisRong: 沒罷掉他一定更囂張啊 這樣才好 哈哈哈102F 01/16 16:38
shinobunodok: 我覺得好像頗難的 這不像罷韓那次仇恨值拉滿103F 01/16 16:38
junior020486: 沒罷掉更囂張 幸好我不是中壢人104F 01/16 16:38
fifi0828: 報復性罷免沒有一個成功的 笑死105F 01/16 16:38
proprome: 又不會全部都投同意罷免106F 01/16 16:38
ntlutw: 綠畜最怕韓, 什麼事都要牽拖韓, 笑死, 結果換來卵男107F 01/16 16:39
ntlutw: 卵 !!!! 呵呵...綠畜看到這個字就氣崩了
oncemore: 即時估算 7.5萬到8.5萬,過與不過之間109F 01/16 16:39
wanye8329: 王浩宇要是罷不過。黃捷就更不用想了110F 01/16 16:40
[圖]
yeng1217: 議員門檻本來就難啊 勝選跟罷免差這麼多w 成功就比市長112F 01/16 16:40
slimu0001: 王浩宇沒被罷掉我是蠻崩潰的啦,綠營留一個超級敗票機113F 01/16 16:40
yeng1217: 還猛了114F 01/16 16:40
LewisRong: 黃捷不可能的啦 看看就好115F 01/16 16:40
alex90236: 不會過吧,天氣冷根本一堆懶得出門116F 01/16 16:40
shenmue1001: 再次證明4%仔就是網路嚇死人 現實笑死人117F 01/16 16:40
DANANPA: 難得看見韓粉出來發聲挺韓了,不然板上都是一堆寄生柯的118F 01/16 16:40
yilin11: 中壢之光119F 01/16 16:40
DANANPA: 柯韓糞120F 01/16 16:41
Julian9x9x9 
Julian9x9x9: 某n是看到王罷的不順利開始扯完全不相關的東西嗎hehe121F 01/16 16:41
FiveSix911: 看起來不樂觀…122F 01/16 16:41
yeng1217: 其實罷王沒過蟑螂大概也只能爽一晚,明天又要怕他出來123F 01/16 16:41
yeng1217: 秀下限了
cuhappy: 如果靠四趴怎能倒宇成功,數學概念?125F 01/16 16:41
cutbear123: 喜韓兒到底要輸幾次才爽 一群fw126F 01/16 16:41
ryanchen1234: 今天天氣好到不行 他應該掰了吧127F 01/16 16:41
chow365: 太慘了吧,感覺不會過128F 01/16 16:41
slimu0001: 可悲韓粉繼續自慰啦,報復性罷免就這樣而已129F 01/16 16:41
ntlutw: 某綠畜是看到卵就崩潰北林北看嗎 ? 呵呵...130F 01/16 16:42
semih: 現在5696票131F 01/16 16:42
freetempo: 反對票比想像中的多啊132F 01/16 16:42
shvzrrsy: 拉機議員 罷不罷掉都有正負的影響 結果真的難講133F 01/16 16:42
megaminoire: 柯韓糞沒罷掉他 只會顯得自己更低能啊ww134F 01/16 16:42
Julian9x9x9 
Julian9x9x9: 好好打字 冷靜點 沒人在催你:)135F 01/16 16:43
DDDDing: 還有不同意票跟廢票的,投票率這麼剛好可能不會過136F 01/16 16:43
shvzrrsy: 說錯 罷掉是好 沒罷掉 不一定不好 DPP繼續敗票XD137F 01/16 16:43
dm03: 哪可能只爽一晚 直接證明ptt 跟現實風向的差距耶138F 01/16 16:43
piece1: 最好霸不了!推去選市長好了139F 01/16 16:43
ilw4e: 綠畜現在是佛地魔認定是自己人了是吧,以後綠共粉=佛粉不140F 01/16 16:43
ilw4e: 用再切割了
yeng1217: 你就看王浩宇會不會出來發表勝利感言啊w142F 01/16 16:43
ntlutw: 笑看肛未成年男孩的垃圾, 留下繼續肛綠糞, 呵呵...143F 01/16 16:44
Julian9x9x9 
Julian9x9x9: 沒啊 敵人的敵人 但不一定要是朋友144F 01/16 16:44
dm03: 是說如果連王都罷不掉 要罷黃捷的還會繼續嗎145F 01/16 16:44
fifi0828: 人家拔掉市長 而你們連議員都弄不掉146F 01/16 16:44
HellDoge: 記者好正147F 01/16 16:44
shenmue1001: 笑4%仔就是支持這個咖洨 這個邏輯很柯學家148F 01/16 16:44
Julian9x9x9 
Julian9x9x9: 哇 這發言水準 是要我怎麼教小孩149F 01/16 16:44
movieghost: 有知名度就有人會投 一堆沒聽過的可能只有親友票150F 01/16 16:44
yeng1217: 都加入DPP了還在敵人 蟑螂邏輯又錯了亂了151F 01/16 16:44
ntlutw: 綠畜無條件支持肛未成年男孩, 呵呵....152F 01/16 16:45
unsocial: 哈哈 中壢人153F 01/16 16:45
Plot3D: 佛粉是真的存在的154F 01/16 16:45
zweihander99: 千萬不能罷掉,我還想笑中壢人155F 01/16 16:45
coolptt: 快衝啊156F 01/16 16:45
meac: 這咖罷不掉  不知道還會説出啥鬼話出來157F 01/16 16:45
edwin11017: 不會吧 眷村區罷免最顧人怨的小小議員都罷不掉?158F 01/16 16:46
NightSoul: 台灣議員的最高得票數是多少?159F 01/16 16:46
ntlutw: 出來投票就被點名做記號, 投票率當然低啊160F 01/16 16:46
luckysummer: 拜託不要過,我要笑死中壢161F 01/16 16:46
funofHD: 我怎麼覺得會過= =162F 01/16 16:46
Julian9x9x9 
Julian9x9x9: 韓粉=敵人 韓粉(敵人)的敵人(佛) 不等於朋友 不163F 01/16 16:46
Julian9x9x9: 是在說佛是敵人 你的閱讀能力還好嗎
ilw4e: https://i.imgur.com/4d9hpaN.jpg  佛粉當然存在165F 01/16 16:46
[圖]
irosehead: 不會真的罷不掉吧? 柯韓糞真的鍵盤戰士XD166F 01/16 16:46
i376ers: 罷不掉了 舒服167F 01/16 16:46
ilw4e: 其實是佛韓粉168F 01/16 16:46
ntlutw: 綠畜就是綠查表, 出來投票就被點名做記號169F 01/16 16:47
YishengSu: 這爛咖還罷不掉的話 真的會被笑死170F 01/16 16:47
cutbear123: 連王浩宇都罷不掉 還是吃屎好惹喇 笑死171F 01/16 16:47
cutbear123: 準備被笑10年
lovejamwu: 罷王總部XDD 有這個喔...173F 01/16 16:47
danniel21: 這咖留著繼續幫菸黨敗票比較好~174F 01/16 16:47
irosehead: 罷掉這咖綠共還要感謝你勒 崩潰得好難看喔 等結果好嗎175F 01/16 16:47
ntlutw: 綠糞看到垃圾留下來敗票了, 就大崩潰了, 可年哪, 呵呵...176F 01/16 16:47
NTJL: 投票率有過?177F 01/16 16:48
zzxcasd 
zzxcasd: 聽說中壢人智商很低  現在我是信了178F 01/16 16:48
irosehead: 罷不罷得掉 綠共都爽爽的 笑死179F 01/16 16:48
Julian9x9x9 
Julian9x9x9: 某n說人家查表 但看到推文直接標佛粉帳號又當作沒看180F 01/16 16:48
Julian9x9x9: 到 真棒
rustic5566: 有世界級的政黑佛粉加持 穩了182F 01/16 16:49
oncemore: 據說89000人投票,同意8.1到8.4萬之間183F 01/16 16:49
ntlutw: 綠畜好急, 看到國民黨罷不掉垃圾, 心裡其實超幹184F 01/16 16:49
dm03: 這其實看完投票率就知道有沒有罷掉了吧185F 01/16 16:49
LewisRong: 投票率有過嗎 我看不容易 看新聞排隊的人蠻少的186F 01/16 16:49
oncemore: 要等全部開完才知道會不會過187F 01/16 16:49
oncemore: 門檻81974
i376ers: 跟韓導當時差太多了189F 01/16 16:49
slimu0001: 投票點名作記號的不是罷韓時一堆低能韓粉的行為嗎190F 01/16 16:49
shenmue1001: 看到某個只會問A達C的智障就是爽191F 01/16 16:50
Julian9x9x9 
Julian9x9x9: 綠到底喜不喜歡佛你們要不要統整一下意見再噴啊 快192F 01/16 16:50
Julian9x9x9: 笑死
irosehead: 很快就知道了 我已經坐等崩潰潮囉194F 01/16 16:50
a1995840420: 國民黨動員能力這麼差嗎?195F 01/16 16:50
LewisRong: 留著也好啦 大敗票機 罷免失敗他一定更囂張 哈哈哈哈196F 01/16 16:50
ntlutw: 某綠畜是看到假博士的臭B嗎 ? 看到林老木什麼西瓜 ? 笑死197F 01/16 16:50
LewisRong: 蠻期待的198F 01/16 16:50
abadjoke: 不會過啦199F 01/16 16:51
ntlutw: 綠畜就無條件支持肛未成年男孩的垃圾啊, 呵呵...200F 01/16 16:51
irosehead: 想想柯韓糞以前講的 罷免好容易啊 大家都來罷201F 01/16 16:51
irosehead: 這咖都沒過不知道要崩潰多久
AndyMAX: 有沒有這麼崩潰 笑死203F 01/16 16:51
umum29: 其實罷不掉留著讓民進黨敗票也不錯 無論怎樣都雙贏204F 01/16 16:51
ntlutw: 綠畜連綠查表都要否認 ? 笑死205F 01/16 16:52
Julian9x9x9 
Julian9x9x9: 問A答B 真的辯論天才206F 01/16 16:52
zego41: 議員特別難罷,這種選制也很奇怪207F 01/16 16:52
nicayoung: 不會過,新竹人智商就那樣208F 01/16 16:52
irosehead: 民進黨拜票還缺這咖? 笑了209F 01/16 16:52
window77 
window77: 白蟑螂寧可在這邊豹紋 也不願意出門投票210F 01/16 16:52
irosehead: 這咖能拜啥票211F 01/16 16:52
cutbear123: 乾新竹屁事喔 中壢在桃園喇212F 01/16 16:52
Hirano: 連佛地魔都罷不掉還想罷黃捷 顆顆213F 01/16 16:52
ntlutw: 綠畜罷韓換到卵 !!! 笑死214F 01/16 16:52
tzcoba01: 中壢人的智商 可憐哪215F 01/16 16:53
LewisRong: 黃捷謀摳零啦 看看就好了216F 01/16 16:53
irosehead: 我們只會看到 哇 好多鍵盤戰士啊 只會敲鍵盤217F 01/16 16:53
ntlutw: 罷不掉垃圾讓綠畜崩了嗎 ? 綠畜這麼急喔 ?218F 01/16 16:53
daye2012: 民進黨這次估的蠻準的嘛,罷免低空不會過219F 01/16 16:53
i376ers: 外地中壢人都根本不在意佛地魔220F 01/16 16:53
LewisRong: 黃捷根本不可能過 老k自嗨而已221F 01/16 16:53
Hirano: 只看到有人罷不掉在崩潰而已 嘻嘻222F 01/16 16:54
NTJL: 黃捷更難吧223F 01/16 16:54
rickcoo: 路過看4%柯韓糞崩潰 哈哈哈 把八卦弄臭結果還是4% 可憐224F 01/16 16:54
ntlutw: 到底幾隻綠畜在崩潰啊 ? 還是脫了褲子等著被肛 ?225F 01/16 16:54
Hirano: 有時間在這崩潰還不去投票? 啊 時間過了226F 01/16 16:54
silentocean: 中壢人…唉…227F 01/16 16:54
irosehead: 甭想了啦 這咖就夠他們累了 還黃婕228F 01/16 16:54
yah13305: 中壢人不要被看不起啊229F 01/16 16:55
ilw4e: 罷不掉也沒差,一萬票選上八萬票叫他下台230F 01/16 16:55
palapalanhu: 4%崩潰231F 01/16 16:55
anendfox: 拜託過232F 01/16 16:55
ntlutw: 綠畜連路過都崩潰 ? 可年哪, 呵呵...233F 01/16 16:55
i376ers: 晚點來看佛地魔開地圖嘲諷 嘻嘻234F 01/16 16:55
silentocean: 臺灣人連王浩宇這種人都能當民代,可恥235F 01/16 16:55
silentocean: 這種咖都罷免不掉確實會讓人很崩潰
proprome: 不同意票大約佔10% 才85000人投票 代表罷免不了237F 01/16 16:56
ntlutw: 綠畜有時間在這崩, 為何不快去脫褲子等被肛 ? 呵呵...238F 01/16 16:56
jageillolin: 1萬5當選,罷免要8萬五,用屁眼想也知道不會過239F 01/16 16:56
kid725: 哇 綠畜好挺佛地魔呢240F 01/16 16:56
cutbear123: 連王浩宇都罷不掉 還是吃屎好惹喇 笑死241F 01/16 16:56
ntlutw: 綠畜超愛王垃圾不意外啊, 綠畜水準大家都知道吧 ? 呵呵...242F 01/16 16:57
wanye8329: 加油中壢 罷得過。以後就覺得你們是民主聖地 不再被笑243F 01/16 16:57
irosehead: 柯糞大將都跑出來崩崩了 等結果好不244F 01/16 16:57
cutbear123: 反韓都能把市長收了 喜韓兒連一個區區的議員都收不掉245F 01/16 16:57
Kazimir: 佛粉大量發生中246F 01/16 16:57
wanye8329: 是瑪利亞聖地247F 01/16 16:57
pipitruck: 這咖留著敗票阿248F 01/16 16:57
Julian9x9x9 
Julian9x9x9: 不是挺佛 主要是佛失敗4%仔韓粉崩潰很爆笑249F 01/16 16:57
ntlutw: 綠畜看到罷王不過留下敗票, 氣得吃屎了, 花哈哈...250F 01/16 16:57
KerryWood: 可憐啊 王浩宇都罷不掉251F 01/16 16:58
ntlutw: 綠畜明明就挺, 還裝個屁啊 ? 呵呵...252F 01/16 16:58
ilw4e: 好了啦,綠畜=佛粉,一個個出來認證,笑死XD253F 01/16 16:58
Julian9x9x9 
Julian9x9x9: 某n你不是才剛說綠發現佛沒罷成會崩潰 你現在是失憶254F 01/16 16:58
pslr1: 可憐哪 人家準備要嘲諷你們這些吃屎的崩潰仔囉255F 01/16 16:58
fllay: 還是看柯韓粉崩潰比較爽256F 01/16 16:58
irosehead: 就給他們說我們挺佛啊 又沒差 笑死 無能狂怒257F 01/16 16:58
Julian9x9x9 
Julian9x9x9: 還支離滅裂發言啊258F 01/16 16:58
ntlutw: 可年吧, 留王敗票讓綠糞大崩了259F 01/16 16:58
gotohikaru: 早說了 他的存在感就沒那麼高260F 01/16 16:58
meowchen: 85000*0.9 < 81947261F 01/16 16:59
leonian: 想到還要看到他囂張嘴臉就噁心 = =262F 01/16 16:59
Julian9x9x9 
Julian9x9x9: 所以綠到底是要佛還不要佛啊 想清楚再發言可不可263F 01/16 16:59
nikepanpan: 明明是佛粉還要假裝不是,好辛苦264F 01/16 16:59
irosehead: 還要講拜票來安慰自己 拜票根本輪不到這咖265F 01/16 16:59
mizys: 幹你的,柯韓糞講這麼多,還不就是不願用出來,只會躲在八266F 01/16 17:01
mizys: 卦版帶風向
i376ers: 車輪黨就是廢 號召的東西沒一樣會成功的268F 01/16 17:01
david624: 4pa真的只剩下在網路嘴炮的能力了269F 01/16 17:01
MSmax: 罷免不掉留下來幫民進黨敗票 超讚270F 01/16 17:01
LewisRong: 不會過吧 投票數大概要91000才會過 投票率太低了271F 01/16 17:02
bryant780417: 很想看四趴崩潰 不怕超怕被打臉 等結果出來吧272F 01/16 17:02
sodamnpig: 蚵粉:留著拜票,蚵糞大剩力273F 01/16 17:02
nat50601tw: 中壢人粉專就一堆無腦護航浩呆的王粉274F 01/16 17:02
ilw4e: 又怪老K哦,怎麼不怪中壢綠畜怎麼不出來投啊,不是說了綠275F 01/16 17:02
ilw4e: 營都討厭的,結果女皇最後下令要保佛了哦
mizys: 罷免都不過了,在那邊幻想敗票,叫柯韓出來投票還比較實際277F 01/16 17:02
playthesong: 沒成功的話我笑死中壢人xd278F 01/16 17:03
dogkid: 過了很好,沒過的話不是通常就當作該選區選民喜歡這一味?279F 01/16 17:04
bradpete: 哈哈哈 先卡位看最後結果XDDD280F 01/16 17:04
bryant780417: 沒成功應該笑死八卦柯韓粉 證明他就沒那麼爛281F 01/16 17:04
Hirano: 中壢藍到爆炸怪綠的不出來投XDDDDDD282F 01/16 17:04
LewisRong: 也不是這樣說啦 門檻確實不低 當選只要一萬票 罷免要283F 01/16 17:04
LewisRong: 八萬
mizys: 中壢藍成這樣,沒成功到底要笑誰啊?285F 01/16 17:04
friday2: 佛粉開心的出來歡呼了呢286F 01/16 17:05
togmogo: 看到有人崩潰亂罵覺得可笑287F 01/16 17:05
tttkkk: 沒有像民進黨那樣傾全黨之力動員媒體、側翼,真的很難罷288F 01/16 17:05
Hirano: 拜託打我臉 這咖弄臭綠黨超想看他被罷掉的289F 01/16 17:05
tttkkk: 免成功。290F 01/16 17:05
LewisRong: 韓導是真的仇恨值拉太高 鐵定掛的291F 01/16 17:05
Hirano: 可是看4%崩潰好爽^^292F 01/16 17:05
LoCKeR941010: 中壢可憐哪293F 01/16 17:05
fifi0828: 開始在靠腰連署很難了哈哈哈哈哈294F 01/16 17:05
mizys: 你自己柯韓糞只會網路動員,怪誰啊?295F 01/16 17:05
LewisRong: 要91000-92000人出來投票才能過296F 01/16 17:06
su160159: 佛地魔爛成這樣還罷不掉4%仔怎麼讓師傅當總統阿297F 01/16 17:06
irosehead: 不是吧 我記得罷免很容易啊 大罷免時代不是開啟了嗎298F 01/16 17:06
MSmax: 現在直接打成4%她媽是在三小299F 01/16 17:06
gogoto990: 八卦熱呼呼300F 01/16 17:06
fifi0828: 說好的罷免太簡單才害韓倒被拔掉呢301F 01/16 17:06
golden90038: 這幾天新聞都沒韓導多 黨媒真噁心302F 01/16 17:06
ES699AP: 沒有綠共黨的幫忙很難罷免掉的303F 01/16 17:06
Julian9x9x9 
Julian9x9x9: 韓總的格調已經墮落到要跟佛比聲量了嗎 可憐啊304F 01/16 17:07
fifi0828: 連9萬票都催不出來 繼續龜鍵盤就好了305F 01/16 17:07
g9122xj: 八卦熱呼呼306F 01/16 17:07
dou0228: 孬共談投票是想笑死誰?307F 01/16 17:07
Julian9x9x9 
Julian9x9x9: 韓總堂堂市長要征服宇宙的 拿來跟一個議員比聲量 笑308F 01/16 17:08
Julian9x9x9: 死
grandwar: 事實是綠的根本不在意罷不罷得掉,4%柯韓粉9.2整天紮稻310F 01/16 17:08
grandwar: 草人自己在那邊打得很開心~笑死
amare1015: 笑歪 不在意咧 王世堅這些老屁股表示溫馨XDDD312F 01/16 17:08
sunblues: 由此可知,綠共的動員能力真的很恐怖313F 01/16 17:08
amare1015: 只有菸佛粉愛佛地魔 DPP裡面討厭他的一堆314F 01/16 17:09
yuchihsu: 綠的只在乎4%崩潰吧,誰管王浩宇315F 01/16 17:09
Julian9x9x9 
Julian9x9x9: 某些人邏輯就是 成功:綠不得民心 崩潰 失敗:綠要316F 01/16 17:09
Julian9x9x9: 敗票 崩潰
g9122xj: 王已經自帶媒體效果,國民黨也全力動員了,,這都失敗只318F 01/16 17:09
teremy: 罷掉 藍營大勝 沒罷掉 綠營掉票 雙贏耶 好厲害319F 01/16 17:09
g9122xj: 能說八卦熱呼呼了320F 01/16 17:09
irosehead: 誰鳥這貨啊 小丑一個321F 01/16 17:10
mokke: 本版有誰說韓導是因為罷免太簡單 某族群幻想能力真的一流322F 01/16 17:10
rickcoo: 看柯韓糞崩潰有夠療育 滾出八卦板拉 一群政治魔人323F 01/16 17:10
mokke:  這智商XD324F 01/16 17:10
bryant780417: 好啦好啦 都綠共的錯啦 四趴萬歲325F 01/16 17:10
irosehead: 問題是 如果小丑都拉不下來 笑破肚皮326F 01/16 17:10
amishitter: 誰管佛地魔怎樣 大家只想看柯韓粉笑話好嗎327F 01/16 17:10
rickcoo: 柯韓糞整天八卦洗政治文、還不是4% 有夠好笑 可憐丟臉328F 01/16 17:10
shmilyss: 這樣也能菸粉綠共,看4%含粉崩潰真好玩,五毛則是喊燒329F 01/16 17:11
shmilyss: ,享受不到民主真好笑
jimmyliu1217: 哇  好多哈佛仔都跑出來透氣了呢  今天空氣真好331F 01/16 17:11
mizys: 幹你的,如果是偏綠的地方就算了,中壢這麼藍還罷免不掉,332F 01/16 17:11
mizys: 怪誰?唐鳳嗎?腦波控制中壢人!
Julian9x9x9 
Julian9x9x9: 沒辦法 一堆4%五毛講話邏輯0分 不來笑一下太可惜了334F 01/16 17:11
bradpete: 八卦熱呼呼 ____穩了啦335F 01/16 17:12
Aidrux 
Aidrux: 4趴小藍覺只會責怪別人336F 01/16 17:12
kronioel: 政黑食屎人又出來透氣啦食物沒消化完就運動不好哦337F 01/16 17:12
awesomeSS66: 笑死 TMD的在發言 泛藍大團結還這麼可笑338F 01/16 17:12
dragonking02: 現在開始罷不掉也好,有大哥沒有輸的既視感339F 01/16 17:12
kannazuki00: 這場失敗,KMT可以解散了340F 01/16 17:12
mokke: 提了綠粉不想面對的議題就是洗對吧?各種議題被打臉 只好在341F 01/16 17:12
teremy: 哈 佛粉很少 看柯韓糞笑話的粉比較多342F 01/16 17:12
headiron: 4%黨被看破手腳可憐啊343F 01/16 17:12
force5566: 中壢鄉民就愛這一味吧344F 01/16 17:13
mokke: 王浩宇的文底下高潮 智商可悲啊~ 事實就是王連知名度都不345F 01/16 17:13
mokke: 夠
NaouZ: 看這答辯書就是一個要吵架,一個根本無視,無法對焦的罷免347F 01/16 17:13
fifi0828: 中壢鐵藍這麼多 結果幾票?348F 01/16 17:13
js52666: 所以看韓國瑜有多顧人怨349F 01/16 17:13
cp394: 佛粉不少啊 沒看上面好幾隻歡欣鼓舞的嗎350F 01/16 17:14
NaouZ: 案怎麼可能有人關注。351F 01/16 17:14
mizys: 看4%崩潰的就叫佛粉,難怪剩4%352F 01/16 17:14
Julian9x9x9 
Julian9x9x9: 笑4%就自動變佛粉的話這個地球上的佛粉恐怕比817多353F 01/16 17:15
LewisRong: 投票率3成5會過啦 2成8不太可能354F 01/16 17:15
phyBomber: 今天出太陽 綠畜都跑出來了呢355F 01/16 17:16
ciplu: 曾經在中壢讀書,中壢人驕傲要隕落了嗎,以後都叫中壢人桃356F 01/16 17:16
ciplu: 園人啦
fifi0828: 沒事兒沒事兒 失敗就靠北罷免制度就行惹358F 01/16 17:16
teremy: 沒有比韓導令人討厭 可惜了359F 01/16 17:16
kadolong: 4%囝 好了啦 我不是佛粉就來看笑話的360F 01/16 17:17
fllay: 如果沒成功就證明某韓真的爛到掉渣而已361F 01/16 17:18
awesomeSS66: 罷免過就是看佛地魔笑話 沒過就是看泛藍團結的笑話362F 01/16 17:18
awesomeSS66: 怎樣都划算
tyw0316: 可見高雄是民主聖地364F 01/16 17:20
iyawen: 看起來不會過了365F 01/16 17:20
mizys: 你不懂,八卦版是過了笑DPP,沒過也是笑DPP366F 01/16 17:20
nosheep: 呵呵,看看噓文就知道綠畜都是佛粉367F 01/16 17:20
teremy: 罷掉 藍營大勝 沒罷掉 綠營掉票 雙贏耶 好厲害368F 01/16 17:21
nosheep: 爽成這樣還要假裝自己不是佛粉,真可悲369F 01/16 17:21
dragonking02: 反正今天不管結果如何,都一定有笑話看,必定有一粉370F 01/16 17:21
dragonking02: 會崩潰
rickcoo: 4%柯韓糞:不管啦 無論有無罷成功 都是我們淫 叭叭~~372F 01/16 17:22
gametv: 罷免成功笑王,罷免失敗笑柯韓粉,雙贏373F 01/16 17:23
waeting: 怎麼可能韓國瑜不如王浩宇374F 01/16 17:23
Cwren: 智力測驗阿 嘻嘻375F 01/16 17:24
dcoog7880: 不會過376F 01/16 17:24
lineage0916: 又再扯柯韓粉,扯柯韓粉的就是支持王浩宇,支持萊豬377F 01/16 17:24
lineage0916: ,支持走私無罪
finalmoon: 綠共連佛地魔這咖也在挺喔爛黨笑死XD379F 01/16 17:25
blargelp: 我柯黑啦,爽,過了笑柯粉 沒過笑中壢人380F 01/16 17:25
※ 編輯: cary4A240022 (110.135.213.95 日本), 01/16/2021 17:27:21
ptychodera: 智力堪憂的城市 悲哀381F 01/16 17:26
MayorKoWenJe: 快笑死,八卦反指標382F 01/16 17:27
FinallyPeace: 這關過了 王浩宇可以出來選總統吧 屌打那個肥豬太子383F 01/16 17:27
touchbird: 柯粉要崩潰了沒啊384F 01/16 17:28
mathew12310: 娃~罷不掉?385F 01/16 17:29
Julian9x9x9 
Julian9x9x9: 早就崩了 你看上面一堆支離滅烈發言就知道386F 01/16 17:29
tamama000: 看推文才知道板上好多佛粉387F 01/16 17:30
tamama000: 自動歸隊的綠蟑螂滿滿的 噁爛蟲欸
nfhlve: 民進黨的最愛389F 01/16 17:33
lianhua: 原來王沒被罷掉 綠綠這麼開心喔XD390F 01/16 17:33
lingahong: 韓禿果然是不世奇材 可以達標又遠超門檻 這要神憎鬼厭391F 01/16 17:34
lingahong: 的境界才行 比王討厭度多100倍
dragonking02: 其實比較多人想看某粉笑話的393F 01/16 17:34
Hirano: 罷掉我爽 罷不掉看4%崩潰也爽啊 嘻嘻394F 01/16 17:35
mathew12310: 我今天看新聞才知道王浩宇罷免投票XD哈哈哈哈395F 01/16 17:35
lianhua: 我本來就覺得罷他幹嘛 罷不掉更爽啊 看王這種咖繼續留著396F 01/16 17:36
lianhua: 幫民進黨刷負面知名度
fifi0828: 中壢這麼藍 票數應該要更多才對398F 01/16 17:36
dragonking02: 來看藍綠笑話的,等於支持佛地魔這邏輯跟韓導87%像399F 01/16 17:36
semih: 72997400F 01/16 17:37
hyde711034: 搞不好珉進黨還偷補刀希望他下去401F 01/16 17:37
whhw: 智慧的選擇402F 01/16 17:38
chocoball: 中壢水準就那樣啦 不要期待403F 01/16 17:39
※ 編輯: cary4A240022 (110.135.213.95 日本), 01/16/2021 17:41:59
dragonking02: 看來佛地魔應該會被罷成功了爽XDD404F 01/16 17:41
zwxyzxxx: 7萬8了405F 01/16 17:42
fucking: 鍵盤響應406F 01/16 17:43
FiveSix911: 刺激了407F 01/16 17:45
louis13: 佛地魔是連支持綠的人也討厭他吧408F 01/16 17:45
a27938686: 幹感覺會差一點409F 01/16 17:46
dragonking02: 依比例應該是會罷成功的XDDD410F 01/16 17:47
※ 編輯: cary4A240022 (110.135.213.95 日本), 01/16/2021 17:48:51
NEDYA: 80726411F 01/16 17:47
appleball200: 看來揪甘心的台灣人是很支持王浩宇的,民主大勝利412F 01/16 17:47
joesong: 快八萬了,協尋小佛爺413F 01/16 17:47
zwxyzxxx: 過8萬了  綠共 綠共粉 準備掰掰414F 01/16 17:47
Xpwa563704ju: 一定過啦,爽415F 01/16 17:48
ilovebig99: 證明佛地魔是中壢王416F 01/16 17:49
finalmoon: 綠共仔又轉彎啦?XDDDD417F 01/16 17:49
abadjoke: 佛粉又要擠廁所了嗎?418F 01/16 17:49
pili30155: 不愧是藍綠都討厭的人 血統不純下去419F 01/16 17:50
momowawa1981: 綠共超挺佛地魔XDDD420F 01/16 17:50
NEDYA: 81142421F 01/16 17:50
AJhe0924: 政黑仔從川普到佛地魔每次都出來丟臉欸哈哈哈422F 01/16 17:50
joesong: 佛粉粗乃玩啦423F 01/16 17:51
※ 編輯: cary4A240022 (110.135.213.95 日本), 01/16/2021 17:53:01
LewisRong: 綠共又轉彎了XDDDD424F 01/16 17:51
PoloHuang: 中壢人高潮囉425F 01/16 17:51
billybbb: 通過426F 01/16 17:53
zwxyzxxx: 掰掰掰   罷掉瞜 ~~~427F 01/16 17:53
billybbb: 剛民視講的428F 01/16 17:53
zwxyzxxx: 智力測驗通過了  恭喜恭喜429F 01/16 17:54
ginobili62: 幹430F 01/16 17:54
mathew12310: 通過!431F 01/16 17:54
magic22s: 恭喜432F 01/16 17:54
mathew12310: 高潮啦啊啊啊啊啊433F 01/16 17:54
nuturewind: 過了嗎!爽啊刺啊拉基下去啦434F 01/16 17:55
q0975190339: 爽啦,低能菸黨下去,再來就縣市長了435F 01/16 17:55
abadjoke: 哭啊 我真的小瞧中壢人了436F 01/16 17:55
euudknrs: 綠共的人被罷掉就是爽437F 01/16 17:55
vincecarterx: 幹。不是一堆綠共很嗆  現在都躲起來不見拉438F 01/16 17:55
joesong: 佛粉高潮439F 01/16 17:55
※ 編輯: cary4A240022 (110.135.213.95 日本), 01/16/2021 17:56:39
QoGIVoQ: 看前面的佛粉當小丑真的是很可悲440F 01/16 17:56
NEDYA: 83160441F 01/16 17:57
※ 編輯: cary4A240022 (110.135.213.95 日本), 01/16/2021 17:58:48
poisonshing: 哈哈442F 01/16 17:58
ld3067498: 舒服443F 01/16 18:00
snio2427: 舒服444F 01/16 18:02
feng0312s: 前幾樓的小丑哭暈沒ㄏ445F 01/16 18:02
bluu: 舒服446F 01/16 18:02
oliver81405: 罷不掉哈哈哈447F 01/16 18:03
snowsdream: 看fb那堆蟑螂狂洗就舒服448F 01/16 18:03
taurus1981: 上面佛粉拿來當簽名檔449F 01/16 18:03
vingfing: oncemore 神留言450F 01/16 18:04
easycool: 舒服451F 01/16 18:05
e65947: 笑鼠人 我要為歷史留名452F 01/16 18:06
billybbb: nt880245 欸 人咧?呵呵呵453F 01/16 18:06
nikepanpan: 綠共的狗轉彎也不是第一天的事,美國大選才玩過一次454F 01/16 18:07
cayalst: 可以專心去找韓了455F 01/16 18:08
billabcddog: 神串留名,綠蛆下去456F 01/16 18:09
nikepanpan: 從剛開始要霸一路嘲諷到開票前,深怕天下人不知道他457F 01/16 18:09
nikepanpan: 們是佛粉
likefeng: 所以到底是誰崩潰了?459F 01/16 18:09
aa229885871: 舒服460F 01/16 18:10
rTKc: 笑死461F 01/16 18:11
PttWaHaha: 綠蟑不要哭… 還有黃劫462F 01/16 18:11
aids893001: 前幾樓的怎麼安靜了 哈哈463F 01/16 18:12
seanidiot: 喔喔喔464F 01/16 18:13
d22426539: 只能說其他不投的都共產黨粉絲465F 01/16 18:15
emilio: 爽啊刺啊466F 01/16 18:18
aria0520: 2%仔崩潰467F 01/16 18:19
yao03911: 爽啊刺啊468F 01/16 18:19
vingfing: 神奇ID都是真的,還剛好都是綠共佛粉 哈哈哈哈469F 01/16 18:20
KOKO24: 蟑螂不要哭啦470F 01/16 18:20
st264201: 一堆死媽垃圾蟑螂人勒? 是誰崩潰了? 爽啊刺啊爽啊刺啊471F 01/16 18:20
foxey: 現在真的不能太囂張 通常囂張沒落魄的久472F 01/16 18:20
[圖]
stinking: 前百推多少綠蟑崩潰?哈哈滾吧!474F 01/16 18:21
CheLiu: 吃屎去吧 矽鶴475F 01/16 18:23
kbten: 舒服476F 01/16 18:23
PttWaHaha: 選市長!選市長!!選市長!!!477F 01/16 18:25
roberttony: 坐看一樓崩潰 哈哈哈478F 01/16 18:25
mywish: 為台灣擋子彈,選立委479F 01/16 18:26
tsohg: 一樓diu臉480F 01/16 18:27
irisann1013: 前幾樓的蟑螂快出來啊!不是要看別人崩潰嗎?自己先481F 01/16 18:28
irisann1013: 崩潰了吧XD
BG716: 媽的垃圾佛粉出來玩阿 前面嘴那麼爽現在又縮了?483F 01/16 18:29
Allen320: 最新名詞 2%仔484F 01/16 18:31
Wall62: 朝聖485F 01/16 18:33
jackysupper: 佛粉要崩潰囉486F 01/16 18:36
WarIII: 喔吼487F 01/16 18:38
sculp: 前面嗆很大的綠蟑怎不說話啦,哈哈哈488F 01/16 18:40
qa456: Wecare 莫而不語489F 01/16 18:41
godofsex 
godofsex: 朝聖490F 01/16 18:42
age200: 坐等崩潰的去哪了?491F 01/16 18:45
CRAZYJEFFY: 打臉文492F 01/16 18:45
p597fg: 哎呦 前幾樓是死了嗎?  怎沒聲音了?493F 01/16 18:45
lovez04wj06: 一樓可憐吶494F 01/16 18:46
lovez04wj06: 2%還好意思笑4%
e04linmom: 看蟑螂崩潰就是爽496F 01/16 18:50
ziso: .497F 01/16 18:50
abc55643: 菸佛糞哭暈在廁所498F 01/16 18:51
godofsex 
godofsex: 可憐哪499F 01/16 18:52
tp6vup4: 蟑螂崩潰中XDD500F 01/16 18:56
Grandslammmm: 中壢人讚啦501F 01/16 18:56
d9578573: 817蟑螂崩潰啦502F 01/16 19:02
GOLDENANDGRE: 前幾樓綠畜哭哭,嘻嘻503F 01/16 19:02
godofsex 
godofsex: 笑死504F 01/16 19:05
ePaper: 水啦505F 01/16 19:06
maybeu5566: 一樓是不是很好笑啊...506F 01/16 19:09
sleepsnow: 真的罷免成功了,現在不知道是誰要崩潰了 XDXDXD507F 01/16 19:09
qquya: 可憐那一樓508F 01/16 19:09
wajolihi: 爽辣!509F 01/16 19:10
elmoman: 爽啦 817智障綠共崩潰摟510F 01/16 19:10
dio0204: 智障綠猴子 哈哈哈哈511F 01/16 19:12
cashko: 爽翻512F 01/16 19:14
sowenvoy: 前面幾樓小丑去哪裡了?513F 01/16 19:16
MidoBanA: 笑死514F 01/16 19:19
w9:  笑死515F 01/16 19:20
kelvin0004: 留名516F 01/16 19:20
auxiliary11: 基進粉QQ517F 01/16 19:24
kendavid001: 前面幾樓 呵呵518F 01/16 19:25
adai: 笑死 議員本來只要相對多數就上 其實反對的更多 真多敗類啊519F 01/16 19:30
yihlin945: XDD520F 01/16 19:30
saiboos: 綠共:政治迫害啦~~521F 01/16 19:31
hyperyoujo: 來朝聖一下,現在是一樓崩潰還是4%崩潰?可悲一樓522F 01/16 19:32
lockeyman: 朝聖這篇推文蟑螂崩潰,在廁所出來沒?嘻嘻523F 01/16 19:33
ak47good: https://i.imgur.com/lEj2qRl.gif   2%777524F 01/16 19:33
Osakayo81: 這邊也好精彩525F 01/16 19:35
novashine: 協尋1樓526F 01/16 19:47
kerry0496x: 爽啦,我前柯粉我驕傲527F 01/16 19:53
thinkfun: 推 好消息528F 01/16 19:57
ebod221: 來朝聖一下,看綠蟑螂崩潰529F 01/16 20:01
wl02311207: 綠粉怎麼安靜惹530F 01/16 20:02
chenjasen: 北部小丑下台去吧531F 01/16 20:06
spacefox: 罷免成功,會進桃園市政府上班嗎?532F 01/16 20:09
DolphinCP: 公關公司! 開起來!533F 01/16 20:11
chasher: 1樓人勒? 還有氣嗎?534F 01/16 20:17
saymom: 爽啊 這個結果非常棒535F 01/16 20:17
chasher: 再4%啊4你老師536F 01/16 20:18
GUMIGUMI: 這邊太好笑了啦537F 01/16 20:18
offstage: nt880245: 坐看四趴仔崩潰538F 01/16 20:20
offstage: 1樓崩潰了嗎
skyringcha: 朝聖朝聖!前面一堆智障蟑螂超好笑哈哈!540F 01/16 20:25
DavidFoster: 看最前面幾樓的推文真的笑死人XD541F 01/16 20:39
guliguli: 朝聖推542F 01/16 20:48
www26235673: 褲子呢543F 01/16 21:08
bang71013: 88888888544F 01/16 21:08
enhowald: 前面被打臉啪啪啪545F 01/16 21:14
cheng399: 朝聖546F 01/16 21:16
yeakb: 爽啦547F 01/16 21:23
GGdong: 前面幾樓褲子穿好可以嗎?屎味都飄出來了548F 01/16 21:43
hahaha021225: 給人看笑話549F 01/16 21:58
jordan1204: 可憐 前幾樓再帶什麼風向550F 01/16 22:00
FadOut: 朝聖!看一堆綠腦智障崩潰就4爽551F 01/16 23:03
ez0980: 蟑螂哪會崩潰 有錢領就好552F 01/16 23:29
sding: 朝聖553F 01/16 23:30
yymeow: 朝聖。前半段推文綠共都不見了,是去找褲子了嗎 XD554F 01/16 23:32
leecliff: 朝聖上面各種綠畜蟑螂跳針 不是很愛嘴出來嘴阿 廢物555F 01/16 23:39
bearKQG: 爽啦556F 01/17 00:13
zukidelko: 朝聖557F 01/17 02:33
cup0226: 朝聖 一樓後悔太早推了齁 臉腫腫558F 01/17 02:38
kkk555: 神串笑死559F 01/17 03:48
blackwoody: 笑死綠共崩潰560F 01/17 03:51
Cadd: 這篇值得打包收藏XDD561F 01/17 09:39
sazdj: 跟看棒球一樣刺激562F 01/17 14:16

--
※ 看板: Gossiping 文章推薦值: 1 目前人氣: 0 累積人氣: 2156 
※ 推薦文章:
( ̄︶ ̄)b tcblow2001 說讚!
1樓 時間: 2021-01-16 17:07:40 (台灣)
  01-16 17:07 TW
狗娘養的1450不用急,
等開出來知道戰況,
下一個就是民進黨議員了。
2樓 時間: 2021-01-16 17:08:16 (台灣)
+1 01-16 17:08 TW
我對王浩宇的事蹟沒有去了解   我只想說  草包會被罷免成功  不是藍綠問題而已
藍營想要罷免誰  真的想清楚  罷免也是雙面刃  失敗只會降低自身影響力
3樓 時間: 2021-01-16 17:30:48 (台灣)
  01-16 17:30 TW
也覺得不會成功
4樓 時間: 2021-01-16 17:36:19 (台灣)
  01-16 17:36 TW
投票率22% 還有反對票喔!!
5樓 時間: 2021-01-16 17:57:29 (台灣)
  01-16 17:57 TW
···
菸韓糞這些狗畜生還在挺王喔??
6樓 時間: 2021-01-16 19:07:06 (台灣)
  01-16 19:07 TW
打臉817就是爽
r)回覆 e)編輯 d)刪除 M)不收藏 ^x)轉錄 同主題: =)首篇 [)上篇 ])下篇